Temperature
6 5 5 6 7 8 8 9 9 10 12 12 11 12 13 14 14 14 14 15 15 16 18 18 17 17 17 16 16 15 15 15 14 14 14 14 13 13 13 13 13 12 12 12
5 5 6 7 7 8 8 8 8 10 11 11 11 11 12 13 14 14 14 15 15 16 17 17 17 17 17 17 16 16 16 15 15 15 15 15 14 14 13 13 13 12 12 12
5 6 7 7 7 7 7 7 8 9 10 11 10 10 11 12 14 15 15 16 16 16 17 17 17 17 17 17 17 16 16 16 16 15 15 14 13 12 12 12 13 13 12 12
5 6 7 7 7 7 7 8 9 9 8 8 9 9 10 11 12 13 14 15 16 16 17 17 17 17 17 18 18 17 17 17 16 15 15 14 14 14 14 14 14 13 12 12
5 6 6 6 7 7 7 8 8 8 8 8 8 8 9 11 12 13 13 15 16 16 17 17 18 18 18 18 18 18 17 17 16 16 15 15 15 15 15 14 13 13 12 12
5 6 6 7 8 8 8 8 8 7 7 7 8 8 9 10 12 13 13 15 16 17 17 17 18 18 18 18 18 18 17 17 17 16 15 15 15 15 14 14 13 13 12 12
5 6 7 7 6 7 7 6 6 6 6 7 8 9 9 11 12 13 14 15 16 16 17 17 18 18 18 18 18 18 17 17 17 16 16 16 15 15 15 15 14 13 13 12
3 4 6 6 6 6 6 6 6 6 7 7 8 9 10 11 12 13 14 15 15 16 16 17 17 18 18 18 18 18 17 17 17 16 16 16 15 15 14 14 14 14 14 14
3 4 6 7 7 7 6 6 7 7 7 7 8 8 10 11 11 12 13 14 15 15 16 17 17 18 18 18 18 18 17 17 17 17 16 16 15 15 15 14 14 13 13 13
3 3 5 6 7 7 7 6 6 6 6 7 8 8 9 11 11 12 12 12 14 15 16 16 17 17 18 18 18 18 17 17 17 17 16 16 16 15 15 14 14 13 13 12
3 3 3 4 5 5 6 6 6 6 6 6 7 9 10 10 11 11 12 13 14 14 15 16 17 17 17 18 18 17 17 17 17 17 16 16 15 15 14 14 13 13 12 12
3 2 2 3 5 5 5 5 5 5 5 6 6 8 11 10 11 11 11 12 13 14 15 16 16 17 17 17 17 17 17 16 16 16 16 16 15 15 14 14 13 13 12 12
3 2 2 3 4 4 4 5 5 5 5 5 6 8 11 10 10 10 10 11 12 13 14 15 15 16 16 16 16 16 16 16 16 16 15 15 15 14 14 13 13 12 12 11
4 2 2 2 3 3 3 4 5 5 5 5 6 7 9 9 9 9 9 10 10 11 12 14 14 15 15 15 16 16 16 16 15 15 15 14 14 14 14 13 12 12 12 11
2 1 1 2 3 3 3 4 5 5 5 5 6 7 8 8 8 8 9 9 9 10 11 12 13 14 14 14 15 15 15 15 15 15 14 14 14 14 13 12 12 11 11 11
1 1 1 2 3 4 4 4 5 5 6 6 6 7 8 8 8 8 8 8 8 9 10 11 12 12 13 14 14 14 14 14 14 14 14 14 13 13 12 12 12 11 11 11
0 0 1 1 2 3 3 4 5 5 6 6 6 7 7 7 7 7 8 8 8 8 9 10 11 12 13 13 14 14 14 14 14 14 13 13 13 12 12 12 11 11 11 10
0 0 0 1 1 1 4 5 6 6 6 6 6 7 7 7 7 8 8 7 7 8 8 9 10 11 12 12 13 13 13 13 13 13 13 13 12 12 11 11 11 11 11 10
1 0 0 0 1 1 4 5 5 5 5 5 5 6 6 7 7 7 7 7 7 8 8 9 10 11 11 12 12 12 12 12 12 12 12 12 12 12 11 11 11 11 10 10
1 1 0 0 1 2 4 5 5 5 4 4 5 5 5 5 5 6 7 7 7 7 8 9 10 10 11 11 11 12 12 12 12 12 12 12 12 11 11 11 11 10 10 10
0 -0 -0 0 1 2 3 4 5 4 3 4 4 4 4 4 5 5 6 6 6 7 7 8 9 10 10 11 11 11 11 11 11 11 11 11 11 11 11 11 10 10 10 9
1 0 -0 0 0 2 4 4 4 3 4 4 4 4 4 5 5 5 5 6 6 6 7 8 8 9 10 10 10 10 11 11 11 11 11 11 11 11 10 10 10 10 9 9
1 1 1 1 2 3 4 4 4 5 4 5 5 5 5 5 5 5 5 5 6 6 6 7 8 8 9 9 10 10 10 10 10 11 11 11 10 10 10 10 10 9 9 9
1 2 1 1 2 2 3 4 4 4 4 5 5 5 5 5 5 5 5 5 5 6 6 7 7 8 8 9 9 10 10 10 10 10 10 10 10 10 10 9 9 9 9 8
0 1 0 0 1 2 3 4 4 4 4 4 4 4 4 4 4 5 5 5 5 5 6 6 7 7 8 8 9 9 9 9 10 10 10 10 10 10 9 9 9 9 9 9
-0 0 0 1 2 1 2 3 3 3 3 3 3 4 4 4 4 4 5 5 5 5 5 6 6 7 7 8 8 9 9 9 9 9 9 9 9 9 9 9 8 8 8 8
Wind_Speed
3 5 9 11 13 11 8 10 12 11 8 9 14 17 16 12 11 12 13 12 14 17 18 17 19 19 19 20 21 22 21 20 18 16 15 15 14 13 12 11 15 18 18 18
3 10 12 10 10 11 12 14 15 13 10 9 12 17 14 13 14 13 15 16 15 15 14 15 17 19 21 23 24 24 23 23 22 18 16 13 11 9 10 9 12 18 18 18
9 7 6 9 11 12 12 13 13 12 10 9 10 14 15 13 14 14 14 15 16 18 18 17 18 19 21 24 25 24 25 24 23 18 12 9 7 6 7 11 12 14 18 18
7 8 9 10 12 12 13 10 10 11 8 6 7 9 12 12 15 17 17 15 16 16 17 17 18 20 21 24 25 25 26 25 23 20 18 18 15 14 14 12 11 11 15 16
6 5 6 10 11 11 8 7 8 8 7 8 8 8 9 9 15 18 17 16 16 16 16 17 19 21 21 23 23 23 24 24 23 22 22 21 16 13 8 8 11 12 12 14
9 7 6 7 7 8 4 3 5 5 4 9 12 10 9 10 16 16 17 17 17 16 15 16 17 18 18 19 20 21 23 24 24 24 23 23 20 15 13 13 14 13 10 11
6 5 5 4 3 5 4 3 2 3 5 8 8 9 11 12 12 17 17 16 15 14 13 13 15 17 17 19 20 21 23 23 24 25 24 24 22 20 19 17 16 14 11 11
4 6 4 3 5 5 7 7 5 4 5 5 6 10 9 11 10 11 13 14 14 14 14 14 15 17 18 20 21 22 23 23 24 25 24 22 21 17 15 15 14 15 13 13
3 5 4 5 4 5 4 6 4 2 3 4 6 6 8 7 8 9 10 10 13 14 14 15 14 15 17 20 21 22 23 22 23 24 23 21 20 18 16 15 13 12 11 10
3 6 7 5 3 4 4 3 3 3 3 5 6 6 5 4 6 8 8 10 11 11 12 13 13 14 15 18 19 20 22 23 21 22 21 18 20 19 17 15 15 14 12 11
3 4 6 4 3 5 4 4 3 4 4 3 4 6 4 5 6 8 9 8 9 9 10 11 11 12 13 13 16 17 18 17 18 20 19 18 18 17 16 16 16 15 13 13
3 3 5 7 6 4 5 6 6 4 5 4 4 8 4 5 6 6 8 8 7 7 7 8 8 9 10 12 13 15 16 17 17 18 17 18 17 16 16 16 15 14 14 14
2 2 4 5 3 2 3 4 6 5 4 5 6 8 7 10 11 10 9 9 8 5 4 4 6 8 10 11 12 13 14 15 15 15 16 16 16 16 17 16 14 14 14 13
5 3 5 7 6 5 7 8 8 7 7 8 10 13 15 14 14 13 11 9 7 4 2 2 5 7 8 9 10 11 12 12 13 14 15 16 17 17 16 15 14 14 14 14
1 4 7 11 13 11 12 14 12 14 13 11 11 13 14 13 12 11 9 8 7 5 4 2 3 4 6 7 8 9 10 11 12 14 14 14 14 14 14 14 14 13 13 13
1 4 5 9 11 12 16 16 15 15 15 14 14 16 12 10 8 8 7 6 6 6 5 4 3 3 5 7 8 9 10 11 12 13 13 12 12 13 14 14 14 13 13 12
3 3 3 6 6 8 11 12 14 12 10 10 13 13 9 10 10 8 6 6 6 6 6 5 5 5 6 7 8 10 10 10 11 12 12 13 13 14 14 14 14 14 14 13
7 5 3 4 3 7 7 4 8 12 12 9 9 9 8 9 9 6 5 6 7 7 6 6 5 5 4 5 6 8 9 10 11 12 12 13 14 13 14 15 15 14 12 13
11 7 4 3 5 8 8 5 3 6 6 3 6 8 8 9 7 6 7 7 8 7 6 6 5 4 4 6 7 9 9 10 11 12 13 14 14 14 14 15 15 13 12 11
9 7 5 4 4 6 6 6 5 2 4 3 3 5 7 7 5 7 10 10 9 8 7 6 4 2 4 5 7 9 10 11 11 12 12 13 14 15 15 15 14 12 12 12
5 6 8 8 7 8 7 6 2 1 5 5 3 3 4 3 5 9 11 9 7 7 7 5 2 2 3 5 9 10 10 11 10 9 10 12 13 13 14 13 12 13 12 13
7 6 7 6 7 9 4 0 2 5 4 4 4 5 5 6 8 9 10 9 8 7 7 5 3 1 2 5 8 10 10 9 9 10 11 12 12 12 13 14 13 14 14 14
7 8 5 8 9 5 3 5 5 4 4 5 5 7 7 7 9 9 9 8 7 6 6 5 3 1 1 3 6 9 8 9 10 11 11 12 12 12 13 15 15 14 13 12
5 4 5 7 9 8 7 6 6 6 6 7 7 8 7 8 9 9 9 8 7 6 6 5 3 2 2 2 4 6 8 10 12 12 11 11 13 13 13 12 12 13 13 12
7 4 6 9 9 8 8 7 7 8 8 9 9 8 8 9 10 9 9 8 7 6 6 4 4 4 4 3 4 5 8 11 12 12 11 11 12 13 12 10 9 11 10 13
8 9 9 11 9 7 8 8 9 10 11 11 10 10 9 9 10 10 9 8 7 7 6 5 5 4 4 4 5 5 8 12 13 11 11 10 11 11 11 11 8 8 9 13
Wind_Direction
243 214 223 218 222 247 253 253 253 254 258 247 245 250 251 241 235 234 233 224 221 220 216 205 200 194 189 187 185 184 183 181 179 181 182 184 188 188 188 189 186 185 184 181
258 242 238 233 242 253 254 255 259 271 256 256 257 257 257 242 233 230 230 228 223 224 221 210 202 195 192 190 189 188 187 184 185 188 189 187 180 182 185 184 187 188 185 183
238 255 252 239 242 248 253 249 249 258 280 261 266 267 254 249 238 234 230 228 225 221 219 212 205 199 194 193 191 191 190 188 188 185 176 161 153 157 179 191 193 193 188 186
258 258 255 252 242 236 252 249 257 261 264 263 229 258 255 241 240 236 234 230 227 224 219 214 206 201 197 196 193 193 191 190 189 183 181 179 184 191 196 191 190 188 189 188
258 263 254 254 242 227 244 250 255 263 254 263 245 248 263 225 232 233 231 230 227 223 217 212 207 202 200 196 193 193 191 191 189 187 187 188 193 196 180 173 179 187 191 190
261 260 248 245 245 223 245 233 269 262 244 248 234 228 260 229 223 228 229 229 227 223 219 215 210 201 201 196 192 191 191 192 189 189 190 192 193 187 175 181 187 190 191 192
302 274 242 230 253 218 199 169 218 225 219 240 211 219 248 238 226 222 227 228 227 223 217 212 209 200 198 194 192 190 190 192 191 191 193 195 195 191 189 189 191 190 190 195
299 293 259 229 227 214 210 190 197 217 225 260 211 226 249 245 235 230 230 232 229 225 222 215 208 202 197 194 192 190 191 192 191 193 195 196 194 194 197 193 192 195 198 198
272 279 288 279 255 200 203 213 216 248 268 258 237 255 282 261 252 243 240 236 232 228 223 218 209 202 198 194 193 192 192 193 192 193 194 194 194 194 195 192 191 194 194 189
244 277 287 283 268 230 210 195 175 202 228 247 258 247 236 258 261 257 248 245 244 239 227 218 209 202 199 195 192 191 193 193 192 192 194 195 194 195 192 188 192 193 190 184
248 259 294 307 242 227 196 205 211 210 230 232 258 266 233 239 269 274 262 257 252 246 233 218 208 202 195 189 189 189 190 190 191 192 192 191 192 191 188 190 192 191 188 186
261 247 271 263 263 258 227 213 198 211 238 239 255 268 276 290 297 298 296 289 282 262 239 215 203 190 185 185 185 187 189 188 189 189 188 189 188 186 187 190 189 185 186 187
280 245 297 315 317 306 255 230 219 231 242 232 237 264 306 332 331 330 324 317 308 294 256 209 193 185 184 186 186 186 186 187 185 182 184 185 184 184 187 187 183 181 181 180
283 219 219 239 260 272 271 266 246 228 236 244 243 272 300 317 323 327 327 323 320 307 290 209 193 186 185 185 186 184 183 182 179 178 180 184 185 184 184 181 178 178 177 177
274 250 245 257 264 265 264 265 256 239 234 240 257 270 283 297 306 312 317 322 322 320 315 254 206 190 183 181 180 180 179 177 176 176 179 182 180 175 173 172 174 173 173 174
227 256 268 270 265 264 269 261 249 247 243 247 264 273 283 297 311 318 322 321 318 316 308 287 249 208 191 188 183 176 176 175 173 175 177 171 167 169 170 170 168 167 167 166
233 228 266 271 282 288 262 243 234 233 230 234 253 265 301 317 315 307 312 316 314 307 299 280 249 221 210 195 184 179 174 168 169 172 169 167 166 168 168 165 164 166 165 160
209 210 231 267 294 249 254 265 241 242 244 240 257 278 293 299 300 289 309 318 312 308 300 290 265 234 215 192 174 164 159 163 166 166 166 166 165 164 163 163 165 163 159 160
200 196 215 237 255 272 284 277 256 244 259 288 281 297 310 312 314 306 327 324 307 296 291 288 272 231 195 177 165 157 159 161 164 169 170 168 165 162 162 164 163 156 153 152
189 186 205 226 244 251 270 299 295 239 264 318 323 330 342 353 324 306 324 321 319 320 322 311 297 220 179 175 162 161 164 167 174 175 171 165 162 162 163 161 155 149 148 146
181 198 216 227 241 263 276 302 1 181 270 296 296 304 325 331 286 295 307 310 314 317 320 328 306 220 196 176 167 169 171 179 174 163 160 158 159 158 155 149 147 145 141 139
201 205 210 210 229 251 277 284 197 242 274 276 279 278 286 292 298 304 309 309 318 328 326 327 323 287 200 172 172 175 179 171 155 153 155 156 154 151 149 146 144 144 143 141
217 208 206 210 228 251 245 231 248 248 261 274 274 274 272 281 292 299 307 308 308 311 314 313 302 280 219 179 177 181 176 156 153 154 156 155 151 150 150 150 148 148 148 148
256 228 224 251 258 267 274 273 274 275 275 276 277 277 273 277 285 292 299 300 299 298 303 308 297 254 232 202 189 183 167 158 157 158 158 156 154 152 151 151 153 156 157 155
234 246 242 254 267 284 275 268 275 286 287 289 291 281 271 275 283 285 288 286 284 286 289 287 275 247 228 203 189 174 165 159 158 159 158 158 156 152 152 150 156 159 165 166
218 222 235 253 254 255 272 277 283 288 289 289 290 290 285 273 273 278 280 278 276 273 273 275 272 251 225 200 190 179 171 163 161 161 161 161 156 152 149 142 125 114 131 142
Height
1438 1440 1436 1434 1435 1434 1432 1430 1428 1424 1422 1424 1422 1420 1417 1417 1417 1417 1418 1420 1422 1424 1427 1431 1436 1440 1445 1449 1453 1458 1462 1467 1472 1477 1481 1485 1488 1492 1497 1500 1504 1507 1510 1513
1438 1435 1430 1431 1432 1432 1432 1431 1428 1423 1420 1422 1420 1417 1412 1411 1411 1411 1412 1413 1416 1419 1422 1425 1429 1434 1438 1442 1447 1452 1456 1461 1466 1470 1474 1479 1484 1489 1493 1497 1501 1504 1507 1510
1435 1430 1427 1428 1430 1430 1429 1429 1426 1424 1419 1418 1420 1415 1409 1404 1404 1404 1405 1406 1408 1411 1414 1418 1422 1426 1430 1435 1439 1444 1449 1454 1460 1465 1471 1477 1483 1487 1490 1493 1495 1499 1503 1506
1431 1426 1426 1426 1426 1427 1426 1423 1423 1422 1424 1422 1421 1418 1405 1400 1398 1397 1397 1398 1400 1403 1406 1410 1414 1418 1422 1427 1432 1437 1443 1448 1453 1459 1464 1469 1472 1476 1479 1484 1489 1494 1498 1502
1429 1424 1424 1423 1420 1422 1421 1420 1421 1421 1422 1423 1418 1419 1404 1396 1394 1389 1389 1390 1391 1394 1398 1401 1405 1409 1414 1420 1425 1431 1436 1441 1447 1452 1457 1462 1466 1471 1476 1481 1486 1490 1494 1498
1425 1421 1421 1418 1416 1418 1418 1420 1420 1419 1422 1421 1411 1415 1402 1390 1382 1380 1380 1382 1383 1386 1390 1394 1398 1403 1407 1413 1418 1423 1429 1434 1440 1445 1450 1455 1460 1465 1470 1475 1480 1484 1489 1493
1425 1419 1416 1416 1417 1417 1418 1423 1427 1424 1423 1415 1402 1403 1392 1377 1372 1371 1372 1374 1376 1379 1383 1386 1390 1394 1399 1404 1410 1415 1421 1427 1433 1438 1443 1448 1454 1459 1464 1468 1474 1478 1482 1486
1433 1425 1416 1414 1415 1415 1415 1418 1423 1420 1416 1408 1399 1395 1381 1370 1366 1365 1366 1367 1370 1372 1375 1378 1382 1386 1391 1397 1402 1407 1413 1419 1425 1431 1436 1442 1448 1453 1458 1464 1468 1472 1476 1480
1433 1425 1415 1412 1411 1412 1413 1414 1412 1415 1411 1408 1398 1387 1375 1365 1363 1362 1362 1362 1363 1365 1367 1370 1374 1379 1384 1389 1394 1400 1406 1412 1417 1423 1430 1435 1441 1447 1452 1457 1463 1468 1472 1477
1433 1429 1417 1412 1410 1409 1411 1410 1414 1416 1413 1406 1396 1386 1376 1367 1363 1359 1358 1357 1357 1358 1360 1362 1366 1371 1376 1382 1388 1394 1399 1405 1411 1417 1423 1428 1434 1440 1446 1452 1457 1462 1467 1472
1431 1431 1421 1416 1412 1410 1411 1412 1410 1411 1410 1407 1400 1384 1366 1363 1359 1358 1355 1352 1352 1353 1353 1356 1359 1364 1369 1375 1381 1386 1392 1398 1405 1410 1416 1422 1428 1434 1440 1445 1451 1456 1461 1466
1429 1429 1426 1417 1409 1408 1408 1408 1409 1413 1411 1406 1400 1383 1359 1358 1356 1354 1352 1350 1349 1349 1349 1351 1354 1359 1363 1368 1374 1380 1385 1392 1398 1404 1410 1416 1422 1428 1434 1439 1445 1451 1456 1461
1428 1429 1428 1419 1415 1411 1410 1407 1406 1407 1407 1404 1398 1380 1357 1357 1354 1353 1351 1349 1347 1346 1346 1347 1350 1354 1358 1363 1368 1373 1379 1385 1392 1398 1404 1410 1416 1422 1428 1433 1439 1445 1451 1456
1425 1426 1428 1424 1416 1414 1412 1407 1404 1406 1404 1399 1390 1377 1364 1360 1357 1354 1351 1349 1346 1345 1344 1344 1347 1350 1354 1358 1363 1368 1374 1380 1386 1392 1398 1404 1410 1416 1422 1428 1434 1440 1445 1450
1424 1424 1422 1416 1411 1409 1406 1402 1399 1398 1395 1394 1382 1377 1367 1364 1361 1356 1353 1350 1347 1345 1344 1344 1345 1347 1350 1354 1359 1363 1369 1375 1381 1386 1392 1398 1404 1411 1417 1423 1429 1435 1441 1446
1423 1423 1419 1413 1406 1403 1399 1393 1391 1389 1385 1383 1379 1373 1365 1362 1359 1357 1354 1351 1348 1345 1344 1344 1345 1346 1348 1351 1355 1360 1365 1370 1376 1382 1387 1393 1399 1406 1412 1418 1424 1431 1436 1442
1422 1422 1419 1412 1404 1401 1395 1383 1381 1379 1377 1377 1375 1369 1364 1362 1359 1357 1354 1352 1349 1347 1345 1344 1344 1345 1346 1349 1352 1356 1361 1366 1372 1378 1383 1389 1395 1401 1407 1414 1420 1426 1431 1437
1417 1419 1418 1413 1409 1406 1385 1376 1374 1372 1370 1371 1369 1365 1363 1361 1358 1355 1354 1352 1349 1347 1345 1343 1343 1343 1345 1347 1350 1354 1358 1363 1368 1374 1379 1385 1391 1397 1403 1409 1415 1421 1427 1432
1408 1413 1415 1413 1408 1396 1381 1374 1373 1372 1370 1369 1367 1364 1362 1359 1356 1353 1353 1352 1349 1346 1343 1342 1341 1341 1342 1345 1348 1351 1356 1360 1365 1370 1375 1381 1387 1393 1399 1405 1411 1417 1423 1429
1404 1408 1412 1409 1405 1393 1377 1370 1367 1370 1371 1368 1366 1364 1362 1359 1360 1356 1352 1350 1347 1345 1342 1340 1340 1340 1341 1343 1346 1349 1353 1357 1362 1366 1372 1377 1383 1389 1395 1401 1407 1414 1420 1426
1405 1407 1407 1405 1400 1387 1375 1370 1367 1375 1373 1367 1364 1363 1362 1362 1362 1358 1352 1349 1347 1344 1342 1339 1338 1338 1340 1342 1345 1348 1351 1355 1359 1364 1370 1375 1381 1386 1392 1398 1405 1411 1417 1423
1397 1399 1399 1398 1396 1386 1371 1370 1372 1371 1366 1364 1363 1361 1360 1358 1356 1353 1350 1347 1344 1341 1340 1338 1337 1337 1339 1341 1343 1346 1349 1353 1358 1363 1368 1373 1378 1384 1390 1396 1402 1408 1414 1419
1389 1388 1387 1385 1380 1370 1368 1367 1366 1365 1363 1361 1360 1358 1356 1354 1352 1349 1347 1344 1342 1340 1339 1338 1337 1337 1338 1340 1342 1344 1347 1352 1356 1361 1366 1371 1376 1382 1387 1393 1398 1404 1410 1416
1384 1379 1380 1378 1370 1367 1365 1363 1362 1362 1360 1358 1356 1355 1353 1351 1348 1346 1344 1342 1340 1339 1337 1336 1336 1336 1337 1338 1341 1343 1346 1350 1354 1358 1363 1368 1373 1379 1385 1390 1396 1401 1406 1411
1379 1377 1375 1372 1366 1364 1360 1360 1359 1358 1357 1355 1353 1351 1349 1346 1344 1342 1340 1338 1337 1336 1335 1335 1334 1334 1335 1337 1338 1341 1344 1347 1351 1355 1360 1365 1370 1375 1381 1387 1392 1398 1404 1408
1370 1371 1371 1365 1362 1362 1358 1357 1356 1354 1352 1350 1348 1346 1344 1343 1340 1338 1336 1334 1333 1332 1332 1332 1332 1332 1333 1334 1336 1339 1342 1345 1348 1352 1356 1361 1366 1372 1377 1383 1390 1397 1403 1408